Location: Apeadero de Los Molinos-Guadarrama
(40.7091°N, 4.0689°W)
Time: 09:36:14
(UTC+00:00)

CZ-4 R/B - Pass Details

Date: 14 May 2021
Orbit: 530 x 597 km, 97.7° (Epoch: 20 June)

Event Time Altitude Azimuth Distance (km) Brightness Sun altitude
Rises 19:49:14 0° 199° (SSW) 2,775 4.8 -4.8°
Reaches altitude 10° 19:51:48 10° 215° (SW) 1,870 4.1 -5.2°
Maximum altitude 19:54:54 21° 265° (W) 1,293 4.0 -5.7°
Drops below altitude 10° 19:57:59 10° 316° (NW) 1,850 5.6 -6.2°
Sets 20:00:31 0° 332° (NNW) 2,737 6.0 -6.6°
